CW8553 Weather Reports


time (UTC)temp
C
wind
direction
speed
KPH
gust
KPH
rain 1hr
cm
rain 24hr
cm
rain mn
cm
humidity
%
barometer
mb
20260503223036 26 0 0.0 0.0 0.00 0.00 0.00 44 1011.0
20260503221551 26 0 0.0 0.0 0.00 0.00 0.00 44 1011.2
20260503220040 25 0 0.0 0.0 0.00 0.00 0.00 46 1011.3
20260503214541 25 0 0.0 0.0 0.00 0.00 0.00 45 1011.5
20260503213043 25 0 0.0 0.0 0.00 0.00 0.00 46 1011.5
20260503211535 25 0 0.0 0.0 0.00 0.00 0.00 48 1011.8
20260503210041 25 0 0.0 0.0 0.00 0.00 0.00 45 1011.9
20260503204541 25 0 0.0 0.0 0.00 0.00 0.00 47 1012.0
20260503203041 25 0 0.0 0.0 0.00 0.00 0.00 49 1012.1
20260503201537 24 0 0.0 0.0 0.00 0.00 0.00 50 1012.3
20260503200037 24 0 0.0 0.0 0.00 0.00 0.00 51 1012.3
20260503194543 23 0 0.0 0.0 0.00 0.00 0.00 53 1012.5
20260503193046 23 0 0.0 0.0 0.00 0.00 0.00 52 1012.7
20260503191603 23 0 0.0 0.0 0.00 0.00 0.00 54 1012.8
20260503190038 23 0 0.0 0.0 0.00 0.00 0.00 54 1013.1
20260503184537 23 0 0.0 0.0 0.00 0.00 0.00 53 1013.2
20260503183040 23 0 0.0 0.0 0.00 0.00 0.00 53 1013.5
20260503181547 22 0 0.0 0.0 0.00 0.00 0.00 56 1013.5
20260503180041 22 0 0.0 0.0 0.00 0.00 0.00 57 1013.7
20260503174545 22 0 0.0 0.0 0.00 0.00 0.00 56 1013.8
20260503173038 22 0 0.0 0.0 0.00 0.00 0.00 60 1013.9
20260503171539 21 0 0.0 0.0 0.00 0.00 0.00 59 1013.9
20260503081540 15 0 0.0 0.0 0.00 0.00 0.00 65 1014.5
20260503071537 17 0 0.0 0.0 0.00 0.00 0.00 58 1014.5
20260503054556 16 0 0.0 0.0 0.00 0.00 0.00 61 1014.1
20260503053036 16 0 0.0 0.0 0.00 0.00 0.00 64 1014.2
20260503051535 16 0 0.0 0.0 0.00 0.00 0.00 65 1014.1
20260503050040 17 0 0.0 0.0 0.00 0.00 0.00 65 1014.0
20260503044542 17 0 0.0 0.0 0.00 0.00 0.00 63 1014.1
20260503043048 17 0 0.0 0.0 0.00 0.00 0.00 64 1013.8
20260503041537 18 0 0.0 0.0 0.00 0.00 0.00 63 1013.7
20260503040036 18 0 0.0 0.0 0.00 0.00 0.00 62 1013.5
20260503034545 18 0 0.0 0.0 0.00 0.00 0.00 60 1013.2
20260503033038 19 0 0.0 0.0 0.00 0.00 0.00 60 1013.0
20260503031537 20 0 0.0 0.0 0.00 0.00 0.00 59 1012.9
20260503030038 20 0 0.0 0.0 0.00 0.00 0.00 59 1012.8
20260503024540 20 0 0.0 0.0 0.00 0.00 0.00 58 1012.6
20260503023043 21 0 0.0 0.0 0.00 0.00 0.00 57 1012.4
20260503021537 21 0 0.0 0.0 0.00 0.00 0.00 55 1012.3
20260503020047 21 0 0.0 0.0 0.00 0.00 0.00 56 1012.4
20260503014537 22 0 0.0 0.0 0.00 0.00 0.00 55 1012.5
20260503013041 22 0 0.0 0.0 0.00 0.00 0.00 54 1012.6
20260503011542 22 0 0.0 0.0 0.00 0.00 0.00 53 1012.8
20260503010038 22 0 0.0 0.0 0.00 0.00 0.00 52 1012.7
20260503004540 22 0 0.0 0.0 0.00 0.00 0.00 52 1012.8
20260503003046 22 0 0.0 0.0 0.00 0.00 0.00 53 1012.9
20260503001546 22 0 0.0 0.0 0.00 0.00 0.00 53 1012.9
20260503000043 22 0 0.0 0.0 0.00 0.00 0.00 52 1013.1
20260502234549 22 0 0.0 0.0 0.00 0.00 0.00 53 1013.3
20260502233041 23 0 0.0 0.0 0.00 0.00 0.00 50 1013.5
20260502231542 22 0 0.0 0.0 0.00 0.00 0.00 49 1013.7
20260502230041 22 0 0.0 0.0 0.00 0.00 0.00 49 1013.9
20260502224544 22 0 0.0 0.0 0.00 0.00 0.00 52 1014.3